When you browse on this site, cookies collect data to enhance your experience and personalize the content and advertising you see.
Visit our Privacy Policy to learn more. By continuing to use the site, you agree to this use of cookies and data.
  • En España
  • Lista de países
  • Para 7 días
  • Temperatura del agua
  • Mapa Satelital
  • El tiempo en el mapa
  • Informadores
  • user-avatar
    Iniciar sesión

    Tiempo cada hora Ayutla

    Hoy, 18 Febrero, Lunes

    Tiempo Temperatura Precipitaciones Viento Presión Humedad
    00:00 +23°C° 0 mm 1 mps 661 mmHg 34%
    01:00 +23°C° 0 mm 1 mps 661 mmHg 35%
    02:00 +22°C° 0 mm 1 mps 660 mmHg 37%
    03:00 +21°C° 0 mm 1 mps 660 mmHg 38%
    04:00 +21°C° 0 mm 1 mps 660 mmHg 39%
    05:00 +20°C° 0 mm 1 mps 660 mmHg 40%
    06:00 +20°C° 0 mm 0 mps 661 mmHg 37%
    07:00 +22°C° 0 mm 0 mps 661 mmHg 34%
    08:00 +24°C° 0 mm 0 mps 662 mmHg 31%
    09:00 +26°C° 0 mm 0 mps 662 mmHg 27%
    10:00 +31°C° 0 mm 1 mps 663 mmHg 24%
    11:00 +33°C° 0 mm 1 mps 663 mmHg 20%
    12:00 +35°C° 0 mm 2 mps 663 mmHg 18%
    13:00 +35°C° 0 mm 2 mps 662 mmHg 17%
    14:00 +36°C° 0 mm 2 mps 661 mmHg 16%
    15:00 +35°C° 0 mm 2 mps 661 mmHg 16%
    16:00 +34°C° 0 mm 2 mps 661 mmHg 17%
    17:00 +32°C° 0 mm 2 mps 661 mmHg 17%
    18:00 +30°C° 0 mm 2 mps 661 mmHg 17%
    19:00 +28°C° 0 mm 2 mps 661 mmHg 17%
    20:00 +26°C° 0 mm 1 mps 662 mmHg 17%
    21:00 +25°C° 0 mm 1 mps 662 mmHg 19%
    22:00 +25°C° 0 mm 1 mps 662 mmHg 20%
    23:00 +24°C° 0 mm 1 mps 662 mmHg 21%

    Mañana, 19 Febrero, Martes

    Tiempo Temperatura Precipitaciones Viento Presión Humedad
    00:00 +23°C° 0 mm 1 mps 661 mmHg 25%
    01:00 +23°C° 0 mm 1 mps 661 mmHg 28%
    02:00 +22°C° 0 mm 1 mps 661 mmHg 31%
    03:00 +21°C° 0 mm 1 mps 660 mmHg 33%
    04:00 +21°C° 0 mm 1 mps 660 mmHg 35%
    05:00 +20°C° 0 mm 1 mps 660 mmHg 36%
    06:00 +20°C° 0 mm 0 mps 661 mmHg 34%
    07:00 +22°C° 0 mm 0 mps 662 mmHg 32%
    08:00 +23°C° 0 mm 0 mps 662 mmHg 30%
    09:00 +27°C° 0 mm 1 mps 663 mmHg 27%
    10:00 +29°C° 0 mm 1 mps 663 mmHg 24%
    11:00 +31°C° 0 mm 2 mps 663 mmHg 21%
    12:00 +31°C° 0 mm 2 mps 662 mmHg 19%
    13:00 +33°C° 0 mm 3 mps 661 mmHg 17%
    14:00 +34°C° 0 mm 3 mps 661 mmHg 15%
    15:00 +33°C° 0 mm 3 mps 661 mmHg 16%
    16:00 +31°C° 0 mm 3 mps 660 mmHg 16%
    17:00 +30°C° 0 mm 3 mps 660 mmHg 17%
    18:00 +28°C° 0 mm 2 mps 660 mmHg 20%
    19:00 +26°C° 0 mm 2 mps 660 mmHg 22%
    20:00 +24°C° 0 mm 1 mps 660 mmHg 25%
    21:00 +23°C° 0 mm 1 mps 660 mmHg 27%
    22:00 +23°C° 0 mm 1 mps 660 mmHg 30%
    23:00 +22°C° 0 mm 1 mps 660 mmHg 32%

    Pasado mañana, 20 Febrero, Miércoles

    Tiempo Temperatura Precipitaciones Viento Presión Humedad
    00:00 +21°C° 0 mm 1 mps 660 mmHg 34%
    01:00 +21°C° 0 mm 1 mps 659 mmHg 35%
    02:00 +20°C° 0 mm 1 mps 659 mmHg 37%
    03:00 +18°C° 0 mm 0 mps 659 mmHg 38%
    04:00 +17°C° 0 mm 0 mps 659 mmHg 40%
    05:00 +17°C° 0 mm 0 mps 658 mmHg 41%
    06:00 +19°C° 0 mm 0 mps 659 mmHg 37%
    07:00 +20°C° 0 mm 0 mps 660 mmHg 33%
    08:00 +22°C° 0 mm 0 mps 661 mmHg 30%
    09:00 +24°C° 0 mm 0 mps 661 mmHg 26%
    10:00 +29°C° 0 mm 1 mps 661 mmHg 23%
    11:00 +31°C° 0 mm 2 mps 661 mmHg 19%
    12:00 +31°C° 0 mm 2 mps 661 mmHg 18%
    13:00 +32°C° 0 mm 2 mps 660 mmHg 16%
    14:00 +33°C° 0 mm 3 mps 659 mmHg 14%
    15:00 +33°C° 0 mm 3 mps 659 mmHg 14%
    16:00 +31°C° 0 mm 2 mps 659 mmHg 14%
    17:00 +30°C° 0 mm 2 mps 659 mmHg 15%
    18:00 +28°C° 0 mm 2 mps 659 mmHg 16%
    19:00 +26°C° 0 mm 1 mps 659 mmHg 18%
    20:00 +24°C° 0 mm 1 mps 660 mmHg 19%
    21:00 +23°C° 0 mm 1 mps 660 mmHg 20%
    22:00 +22°C° 0 mm 1 mps 660 mmHg 22%
    23:00 +22°C° 0 mm 1 mps 660 mmHg 23%

    21 Febrero, Jueves

    Tiempo Temperatura Precipitaciones Viento Presión Humedad
    00:00 +21°C° 0 mm 1 mps 659 mmHg 26%
    01:00 +20°C° 0 mm 1 mps 659 mmHg 28%
    02:00 +20°C° 0 mm 1 mps 658 mmHg 31%
    03:00 +17°C° 0 mm 0 mps 658 mmHg 33%
    04:00 +17°C° 0 mm 0 mps 659 mmHg 35%
    05:00 +16°C° 0 mm 0 mps 659 mmHg 36%
    06:00 +18°C° 0 mm 0 mps 659 mmHg 34%
    07:00 +20°C° 0 mm 0 mps 660 mmHg 31%
    08:00 +22°C° 0 mm 0 mps 661 mmHg 28%
    09:00 +26°C° 0 mm 1 mps 661 mmHg 24%
    10:00 +29°C° 0 mm 1 mps 662 mmHg 21%
    11:00 +31°C° 0 mm 2 mps 662 mmHg 17%
    12:00 +31°C° 0 mm 2 mps 661 mmHg 16%
    13:00 +32°C° 0 mm 2 mps 660 mmHg 14%
    14:00 +33°C° 0 mm 3 mps 659 mmHg 13%
    15:00 +33°C° 0 mm 3 mps 659 mmHg 13%
    16:00 +31°C° 0 mm 3 mps 659 mmHg 14%
    17:00 +30°C° 0 mm 2 mps 659 mmHg 14%
    18:00 +28°C° 0 mm 2 mps 660 mmHg 16%
    19:00 +26°C° 0 mm 2 mps 660 mmHg 18%
    20:00 +24°C° 0 mm 2 mps 660 mmHg 20%
    21:00 +23°C° 0 mm 1 mps 660 mmHg 21%
    22:00 +22°C° 0 mm 1 mps 660 mmHg 21%
    23:00 +22°C° 0 mm 1 mps 660 mmHg 22%

    22 Febrero, Viernes

    Tiempo Temperatura Precipitaciones Viento Presión Humedad
    00:00 +21°C° 0 mm 1 mps 660 mmHg 23%
    01:00 +21°C° 0 mm 1 mps 659 mmHg 24%
    02:00 +18°C° 0 mm 0 mps 659 mmHg 25%
    03:00 +20°C° 0 mm 1 mps 659 mmHg 26%
    04:00 +19°C° 0 mm 1 mps 659 mmHg 28%
    05:00 +19°C° 0 mm 1 mps 659 mmHg 29%
    06:00 +19°C° 0 mm 0 mps 660 mmHg 27%
    07:00 +21°C° 0 mm 0 mps 661 mmHg 24%
    08:00 +23°C° 0 mm 0 mps 662 mmHg 22%
    09:00 +27°C° 0 mm 1 mps 663 mmHg 20%
    10:00 +29°C° 0 mm 1 mps 663 mmHg 18%
    11:00 +31°C° 0 mm 2 mps 663 mmHg 16%
    12:00 +32°C° 0 mm 2 mps 662 mmHg 15%
    13:00 +34°C° 0 mm 2 mps 662 mmHg 15%
    14:00 +35°C° 0 mm 3 mps 661 mmHg 14%
    15:00 +34°C° 0 mm 2 mps 661 mmHg 15%
    16:00 +32°C° 0 mm 2 mps 661 mmHg 16%
    17:00 +31°C° 0 mm 2 mps 661 mmHg 17%
    18:00 +29°C° 0 mm 2 mps 661 mmHg 19%
    19:00 +27°C° 0 mm 2 mps 661 mmHg 21%
    20:00 +25°C° 0 mm 2 mps 662 mmHg 23%
    21:00 +24°C° 0 mm 1 mps 661 mmHg 25%
    22:00 +24°C° 0 mm 1 mps 661 mmHg 26%
    23:00 +23°C° 0 mm 1 mps 661 mmHg 28%

    23 Febrero, Sábado

    Tiempo Temperatura Precipitaciones Viento Presión Humedad
    00:00 +22°C° 0 mm 1 mps 661 mmHg 30%
    01:00 +20°C° 0 mm 0 mps 660 mmHg 33%
    02:00 +19°C° 0 mm 0 mps 660 mmHg 36%
    03:00 +19°C° 0 mm 0 mps 660 mmHg 38%
    04:00 +18°C° 0 mm 0 mps 660 mmHg 40%
    05:00 +18°C° 0 mm 0 mps 661 mmHg 41%
    06:00 +20°C° 0 mm 0 mps 661 mmHg 38%
    07:00 +22°C° 0 mm 0 mps 662 mmHg 35%
    08:00 +23°C° 0 mm 0 mps 663 mmHg 32%
    09:00 +28°C° 0 mm 1 mps 663 mmHg 29%
    10:00 +30°C° 0 mm 1 mps 663 mmHg 25%
    11:00 +32°C° 0 mm 2 mps 663 mmHg 21%
    12:00 +32°C° 0 mm 2 mps 663 mmHg 20%
    13:00 +34°C° 0 mm 2 mps 662 mmHg 18%
    14:00 +35°C° 0 mm 3 mps 661 mmHg 17%
    15:00 +34°C° 0 mm 2 mps 661 mmHg 17%
    16:00 +34°C° 0 mm 2 mps 661 mmHg 18%
    17:00 +32°C° 0 mm 2 mps 661 mmHg 19%
    18:00 +30°C° 0 mm 2 mps 661 mmHg 22%
    19:00 +28°C° 0 mm 2 mps 662 mmHg 25%
    20:00 +26°C° 0 mm 2 mps 662 mmHg 28%
    21:00 +25°C° 0 mm 1 mps 662 mmHg 30%
    22:00 +25°C° 0 mm 1 mps 662 mmHg 31%
    23:00 +24°C° 0 mm 1 mps 662 mmHg 33%
    Mostrar más